Flag for Canada Weather past 2 weeks in Brantford, Ontario, Canada

Now
66 °F

Thunderstorms. Partly cloudy.


Feels Like: 66 °F
Forecast: 58 / 77 °F
Wind: 7 mph from Northwest

Location: Hamilton Airport

Current Time: Aug 1, 2015 at 12:15:27 AM

Latest Report: Jul 31, 2015 at 11:00 PM


Visibility: 15 mi

Pressure: 29.81 "Hg

Humidity: 83%

Dew point: 61 °F

Location of BrantfordLocation

Historic Weather in Brantford — Graph

°F

Brantford temperature yesterday

Maximum temperature yesterday: 82 °F (at 3:00 PM)
Minimum temperature yesterday: 59 °F (at 5:00 AM)
Average temperature yesterday: 71 °F

Past Weeks' High & Low Weather Summary

 TemperatureHumidityPressure
High88 °F (Jul 18, 4:00 PM)100% (Jul 17, 11:00 PM)30.05 "Hg (Jul 17, 11:00 PM)
Low54 °F (Jul 23, 3:00 AM)34% (Jul 24, 3:00 PM)29.64 "Hg (Jul 21, 3:00 AM)
Average72 °F71%29.89 "Hg
* Reported Jul 16 11:00 PM — Jul 31 11:00 PM, Brantford, Weather by CustomWeather, © 2015

Note: Actual official high and low records may vary slightly from our data, if they occured in-between our weather recording intervals... More about our weather records

Advertising

Brantford weather history for previous 24 hours

 ConditionsComfort  
Time TempWeatherWind HumidityBarometerVisibility
11:00 PM
Fri, Jul 31
66 °FThunderstorms. Partly cloudy.7 mph83%29.81 "Hg15 mi
10:00 PM66 °FThunderstorms. Mostly cloudy.8 mph83%29.80 "Hg10 mi
9:00 PM72 °FSprinkles. Partly sunny.2 mph78%29.78 "Hg15 mi
8:00 PM73 °FScattered showers. Scattered clouds.8 mph74%29.78 "Hg15 mi
7:00 PM77 °FScattered showers. Broken clouds.8 mph65%29.78 "Hg10 mi
6:00 PM77 °FPartly sunny.16 mph57%29.78 "Hg15 mi
5:00 PM79 °FScattered showers. Scattered clouds.15 mph54%29.79 "Hg15 mi
4:00 PM81 °FScattered showers. Partly sunny.17 mph48%29.80 "Hg15 mi
3:00 PM82 °FPartly sunny.12 mph45%29.82 "Hg8 mi
2:00 PM81 °FBroken clouds.15 mph45%29.83 "Hg15 mi
1:00 PM81 °FBroken clouds.15 mph48%29.85 "Hg15 mi
12:00 PM81 °FPassing clouds.10 mph48%29.86 "Hg15 mi
11:00 AM77 °FPassing clouds.8 mph61%29.88 "Hg15 mi
10:00 AM73 °FPassing clouds.8 mph69%29.88 "Hg15 mi
9:00 AM70 °FPassing clouds.7 mph73%29.89 "Hg15 mi
8:00 AM66 °FPassing clouds.6 mph78%29.90 "Hg15 mi
7:00 AM61 °FPassing clouds.5 mph94%29.90 "Hg15 mi
6:00 AM59 °FPassing clouds.5 mph94%29.90 "Hg15 mi
5:00 AM59 °FClear.7 mph94%29.90 "Hg15 mi
4:00 AM61 °FClear.6 mph88%29.90 "Hg15 mi
3:00 AM63 °FClear.6 mph83%29.90 "Hg15 mi
2:00 AM64 °FClear.6 mph78%29.90 "Hg15 mi
1:00 AM64 °FPassing clouds.7 mph78%29.90 "Hg15 mi
12:00 AM66 °FClear.6 mph73%29.89 "Hg15 mi
Weather by CustomWeather, © 2015

See weather overviewHow to use our weather pages